• In Hungary
  • List of Countries
  • For 7 days
  • Water Temperature
  • Satellite Maps
  • Weather Map
  • News
  • Weather Widgets
  • user-avatar
    Login

    Hourly Weather Melovoy Zavod

    Today, 22 October, Monday

    Time Temperature Precipitation Wind Pressure Humidity
    00:00 +3°C° 0 mm 3 mps 751 mmHg 73%
    01:00 +4°C° 0 mm 2 mps 751 mmHg 74%
    02:00 +3°C° 0 mm 2 mps 751 mmHg 75%
    03:00 +3°C° 0 mm 2 mps 751 mmHg 76%
    04:00 +1°C° 0 mm 3 mps 751 mmHg 78%
    05:00 +1°C° 0 mm 3 mps 751 mmHg 79%
    06:00 +2°C° 0 mm 2 mps 751 mmHg 79%
    07:00 +2°C° 0 mm 2 mps 752 mmHg 80%
    08:00 +3°C° 0 mm 2 mps 752 mmHg 73%
    09:00 +4°C° 0 mm 2 mps 752 mmHg 66%
    10:00 +4°C° 0 mm 3 mps 753 mmHg 59%
    11:00 +6°C° 0 mm 2 mps 752 mmHg 54%
    12:00 +7°C° 0 mm 2 mps 752 mmHg 50%
    13:00 +8°C° 0 mm 2 mps 752 mmHg 46%
    14:00 +8°C° 0 mm 2 mps 752 mmHg 45%
    15:00 +9°C° 0 mm 1 mps 752 mmHg 44%
    16:00 +9°C° 0 mm 1 mps 752 mmHg 44%
    17:00 +8°C° 0 mm 1 mps 752 mmHg 47%
    18:00 +7°C° 0 mm 1 mps 752 mmHg 51%
    19:00 +5°C° 0 mm 2 mps 752 mmHg 54%
    20:00 +6°C° 0 mm 1 mps 752 mmHg 55%
    21:00 +5°C° 0 mm 1 mps 752 mmHg 56%
    22:00 +5°C° 0 mm 1 mps 751 mmHg 58%
    23:00 +5°C° 0 mm 1 mps 751 mmHg 58%

    Tomorrow, 23 October, Tuesday

    Time Temperature Precipitation Wind Pressure Humidity
    00:00 +4°C° 0 mm 1 mps 751 mmHg 59%
    01:00 +4°C° 0 mm 1 mps 751 mmHg 60%
    02:00 +4°C° 0 mm 1 mps 751 mmHg 61%
    03:00 +4°C° 0 mm 1 mps 751 mmHg 63%
    04:00 +4°C° 0 mm 1 mps 751 mmHg 64%
    05:00 +3°C° 0 mm 1 mps 750 mmHg 66%
    06:00 +2°C° 0 mm 2 mps 750 mmHg 67%
    07:00 +2°C° 0 mm 2 mps 750 mmHg 69%
    08:00 +4°C° 0 mm 2 mps 750 mmHg 64%
    09:00 +6°C° 0 mm 2 mps 750 mmHg 58%
    10:00 +7°C° 0 mm 3 mps 749 mmHg 53%
    11:00 +9°C° 0 mm 3 mps 749 mmHg 49%
    12:00 +10°C° 0 mm 4 mps 749 mmHg 45%
    13:00 +12°C° 0 mm 4 mps 748 mmHg 41%
    14:00 +12°C° 0 mm 4 mps 748 mmHg 42%
    15:00 +12°C° 0 mm 4 mps 747 mmHg 44%
    16:00 +13°C° 0 mm 3 mps 746 mmHg 45%
    17:00 +12°C° 0 mm 3 mps 746 mmHg 51%
    18:00 +11°C° 0 mm 3 mps 746 mmHg 57%
    19:00 +10°C° 0 mm 3 mps 745 mmHg 63%
    20:00 +10°C° 0 mm 4 mps 745 mmHg 63%
    21:00 +10°C° 0 mm 4 mps 745 mmHg 62%
    22:00 +9°C° 0 mm 5 mps 744 mmHg 62%
    23:00 +9°C° 0 mm 5 mps 744 mmHg 64%

    Day after tomorrow, 24 October, Wednesday

    Time Temperature Precipitation Wind Pressure Humidity
    00:00 +9°C° 0 mm 5 mps 744 mmHg 66%
    01:00 +9°C° 0 mm 5 mps 743 mmHg 68%
    02:00 +9°C° 0.3 mm 5 mps 743 mmHg 73%
    03:00 +9°C° 0.3 mm 6 mps 743 mmHg 77%
    04:00 +8°C° 0.3 mm 6 mps 743 mmHg 81%
    05:00 +8°C° 0.1 mm 6 mps 742 mmHg 79%
    06:00 +8°C° 0.1 mm 6 mps 742 mmHg 76%
    07:00 +8°C° 0.1 mm 6 mps 741 mmHg 73%
    08:00 +9°C° 0 mm 7 mps 741 mmHg 68%
    09:00 +10°C° 0 mm 7 mps 741 mmHg 63%
    10:00 +11°C° 0 mm 8 mps 741 mmHg 58%
    11:00 +12°C° 0 mm 8 mps 741 mmHg 55%
    12:00 +13°C° 0 mm 8 mps 741 mmHg 53%
    13:00 +16°C° 0 mm 8 mps 740 mmHg 50%
    14:00 +16°C° 0 mm 7 mps 740 mmHg 50%
    15:00 +16°C° 0 mm 6 mps 740 mmHg 49%
    16:00 +15°C° 0 mm 5 mps 739 mmHg 49%
    17:00 +15°C° 0 mm 4 mps 740 mmHg 52%
    18:00 +14°C° 0 mm 4 mps 740 mmHg 55%
    19:00 +13°C° 0 mm 3 mps 740 mmHg 58%
    20:00 +12°C° 0 mm 3 mps 740 mmHg 60%
    21:00 +12°C° 0 mm 3 mps 740 mmHg 62%
    22:00 +11°C° 0 mm 3 mps 740 mmHg 64%
    23:00 +11°C° 0 mm 3 mps 740 mmHg 64%

    25 October, Thursday

    Time Temperature Precipitation Wind Pressure Humidity
    00:00 +11°C° 0 mm 3 mps 740 mmHg 65%
    01:00 +11°C° 0 mm 3 mps 740 mmHg 66%
    02:00 +10°C° 0 mm 3 mps 740 mmHg 66%
    03:00 +10°C° 0 mm 4 mps 740 mmHg 66%
    04:00 +10°C° 0 mm 4 mps 740 mmHg 66%
    05:00 +9°C° 0 mm 5 mps 739 mmHg 68%
    06:00 +9°C° 0 mm 5 mps 739 mmHg 69%
    07:00 +9°C° 0 mm 6 mps 739 mmHg 70%
    08:00 +10°C° 0 mm 7 mps 739 mmHg 63%
    09:00 +12°C° 0 mm 8 mps 739 mmHg 55%
    10:00 +13°C° 0 mm 8 mps 739 mmHg 47%
    11:00 +16°C° 0 mm 9 mps 738 mmHg 43%
    12:00 +17°C° 0 mm 9 mps 738 mmHg 38%
    13:00 +19°C° 0 mm 10 mps 737 mmHg 33%
    14:00 +18°C° 0 mm 9 mps 737 mmHg 33%
    15:00 +18°C° 0 mm 9 mps 736 mmHg 33%
    16:00 +18°C° 0 mm 9 mps 736 mmHg 32%
    17:00 +18°C° 0 mm 9 mps 736 mmHg 34%
    18:00 +17°C° 0 mm 9 mps 736 mmHg 35%
    19:00 +16°C° 0 mm 9 mps 735 mmHg 36%
    20:00 +16°C° 0 mm 9 mps 735 mmHg 37%
    21:00 +14°C° 0 mm 10 mps 735 mmHg 37%
    22:00 +14°C° 0 mm 10 mps 735 mmHg 38%
    23:00 +14°C° 0 mm 10 mps 734 mmHg 39%

    26 October, Friday

    Time Temperature Precipitation Wind Pressure Humidity
    00:00 +14°C° 0 mm 10 mps 734 mmHg 39%
    01:00 +15°C° 0 mm 9 mps 733 mmHg 40%
    02:00 +15°C° 0 mm 9 mps 733 mmHg 41%
    03:00 +15°C° 0 mm 9 mps 732 mmHg 42%
    04:00 +15°C° 0 mm 9 mps 732 mmHg 43%
    05:00 +15°C° 0 mm 9 mps 731 mmHg 43%
    06:00 +15°C° 0 mm 9 mps 731 mmHg 44%
    07:00 +15°C° 0 mm 9 mps 730 mmHg 44%
    08:00 +16°C° 0 mm 9 mps 730 mmHg 43%
    09:00 +16°C° 0 mm 9 mps 730 mmHg 43%
    10:00 +17°C° 0 mm 9 mps 730 mmHg 42%
    11:00 +16°C° 0.2 mm 8 mps 731 mmHg 50%
    12:00 +15°C° 0.2 mm 6 mps 731 mmHg 59%
    13:00 +14°C° 0.2 mm 5 mps 731 mmHg 67%
    14:00 +11°C° 0.3 mm 6 mps 731 mmHg 70%
    15:00 +10°C° 0.3 mm 6 mps 732 mmHg 73%
    16:00 +9°C° 0.3 mm 6 mps 732 mmHg 76%
    17:00 +9°C° 0 mm 6 mps 733 mmHg 72%
    18:00 +9°C° 0 mm 5 mps 733 mmHg 67%
    19:00 +8°C° 0 mm 5 mps 734 mmHg 62%
    20:00 +8°C° 0 mm 5 mps 734 mmHg 61%
    21:00 +8°C° 0 mm 4 mps 735 mmHg 59%
    22:00 +8°C° 0 mm 4 mps 735 mmHg 58%
    23:00 +7°C° 0 mm 4 mps 736 mmHg 58%

    27 October, Saturday

    Time Temperature Precipitation Wind Pressure Humidity
    00:00 +7°C° 0 mm 4 mps 736 mmHg 58%
    01:00 +6°C° 0 mm 4 mps 737 mmHg 58%
    02:00 +6°C° 0 mm 4 mps 737 mmHg 60%
    03:00 +7°C° 0 mm 3 mps 737 mmHg 62%
    04:00 +5°C° 0 mm 3 mps 737 mmHg 64%
    05:00 +5°C° 0 mm 3 mps 738 mmHg 66%
    06:00 +4°C° 0 mm 4 mps 738 mmHg 68%
    07:00 +4°C° 0 mm 4 mps 739 mmHg 70%
    08:00 +5°C° 0 mm 5 mps 739 mmHg 66%
    09:00 +5°C° 0 mm 6 mps 739 mmHg 62%
    10:00 +7°C° 0 mm 6 mps 740 mmHg 58%
    11:00 +6°C° 0 mm 7 mps 740 mmHg 54%
    12:00 +8°C° 0 mm 7 mps 740 mmHg 50%
    13:00 +8°C° 0 mm 7 mps 740 mmHg 46%
    14:00 +8°C° 0.1 mm 6 mps 740 mmHg 49%
    15:00 +7°C° 0.1 mm 6 mps 741 mmHg 51%
    16:00 +5°C° 0.1 mm 6 mps 741 mmHg 54%
    17:00 +5°C° 0.1 mm 6 mps 742 mmHg 58%
    18:00 +4°C° 0.1 mm 6 mps 742 mmHg 63%
    19:00 +4°C° 0.1 mm 7 mps 743 mmHg 67%
    20:00 +3°C° 0 mm 6 mps 744 mmHg 65%
    21:00 +2°C° 0 mm 6 mps 744 mmHg 63%
    22:00 +1°C° 0 mm 6 mps 745 mmHg 61%
    23:00 +1°C° 0 mm 6 mps 746 mmHg 62%

    28 October, Sunday

    Time Temperature Precipitation Wind Pressure Humidity
    00:00 0°C° 0 mm 5 mps 747 mmHg 63%
    01:00 0°C° 0 mm 4 mps 747 mmHg 64%
    02:00 0°C° 0 mm 4 mps 748 mmHg 66%
    03:00 0°C° 0 mm 4 mps 749 mmHg 69%
    04:00 -1°C° 0 mm 4 mps 749 mmHg 71%
    05:00 -1°C° 0 mm 4 mps 750 mmHg 73%
    06:00 -1°C° 0 mm 4 mps 751 mmHg 75%
    07:00 -1°C° 0 mm 4 mps 751 mmHg 77%
    08:00 0°C° 0 mm 5 mps 752 mmHg 71%
    09:00 +1°C° 0 mm 5 mps 752 mmHg 65%
    10:00 +3°C° 0 mm 6 mps 752 mmHg 59%
    11:00 +4°C° 0 mm 7 mps 753 mmHg 54%
    12:00 +5°C° 0 mm 7 mps 753 mmHg 49%
    13:00 +6°C° 0 mm 8 mps 753 mmHg 44%
    14:00 +6°C° 0 mm 8 mps 753 mmHg 44%
    15:00 +6°C° 0 mm 7 mps 753 mmHg 44%
    16:00 +6°C° 0 mm 7 mps 753 mmHg 44%
    17:00 +6°C° 0 mm 7 mps 753 mmHg 46%
    18:00 +6°C° 0 mm 7 mps 753 mmHg 48%
    19:00 +6°C° 0 mm 8 mps 753 mmHg 50%
    20:00 +6°C° 0 mm 8 mps 753 mmHg 51%
    21:00 +7°C° 0 mm 8 mps 754 mmHg 53%
    22:00 +7°C° 0 mm 8 mps 754 mmHg 54%
    23:00 +7°C° 0 mm 9 mps 754 mmHg 55%
    Show more